Weather in Krivets

Russia / Perm Krai     58°34′28″N   55°23′05″E
temp.,
°C
wind,
m/s
gust,
m/s
humid.,
%
clouds,
%
prec.,
mm/h
press.,
hPa
HPBL,
m
3 march, wed
wed323:00−5ssw4996100 1.8 994410
02:00−4sw3597100 0.9 993196
05:00−8wsw359793 1.0 99491
08:00−10wsw359787 0.1 994122
11:00−6w359592 0.2 995259
14:00−3w359296 0.1 996535
17:00−3w249498 0.3 996410
20:00−6w229697 0.3 99629
4 march, thu
thu423:00−8wnw239695 0.5 99773
02:00−11w259692 0.0 995112
05:00−12wsw379791 0.1 996173
08:00−12sw379693 0.1 995211
11:00−10sw369497 0.1 995291
14:00−6sw3692100 0.1 994512
17:00−6ssw4891100 0.4 993581
20:00−6s3895100 0.3 991363
5 march, fri
fri523:00−7sse2496100 0.5 99193
02:00−10s119791 0.2 99121
05:00−9wnw129793 0.3 99427
08:00−11nw259795 0.1 996146
11:00−11wnw249486 0.1 998239
14:00−7w238898 0.1 999489
17:00−7w238999 0.2 1001490
20:00−10nw2696100 0.2 1002170
6 march, sat
sat623:00−16nw239796 0.3 100429
02:00−18wnw239877 0.0 100539
05:00−20w239975 0.0 100759
08:00−18w369795 0.1 1009219
11:00−16w359394 0.1 1009262
14:00−12wsw248830 0.0 1009406
17:00−10sw368946 0.0 1007654
20:00−12ssw399593 0.3 1007389
7 march, sun
sun723:00−13wsw269696 0.7 1007173
02:00−18wnw2398100 0.1 100760
05:00−22wnw229988 0.1 100820
08:00−24wsw129810 0.0 100820
11:00−19sw249320 0.0 1009220
14:00−14sw478973 0.1 1009660
17:00−12sw378786 0.2 1008920
20:00−14s3896100 0.1 1007265